Terminal Aerodrome Forecast
Issued by NWS

Home | Current Version | Previous Version | Text Only | Print | Product List | Glossary On
Versions: 1 2 3 4 5 6 7 8 9 10 11 12 13 14 15 16 17 18
860
FTUS44 KMAF 251308 AAA
TAFPEQ
TAF AMD
KPEQ 251308Z 2513/2612 07007KT P6SM SCT050 BKN100
      TEMPO 2513/2515 BKN015
     FM251500 04010KT P6SM SCT050 BKN100
      TEMPO 2515/2519 6SM TSRA BR BKN030CB
     FM251900 02015G25KT 3SM TSRA BR OVC020CB=

USA.gov is the U.S. government's official web portal to all federal, state and local government web resources and services.